This demonstration page uses our WeatherBlox Daily Observations layout. Learn more.

Left ArrowRight Arrow

Hourly Observations for August 10, 2018

Temp ( °F °C ) Dew Point ( °F °C ) Humidity (%) Winds ( mph kmh ) Pressure ( in mb ) Visibility ( mi km ) Precip ( " mm )
12:52 am 00:52 Clear 70 21.1 63 17.2 79 79 S 3 6 30.00 1016 10 16 0.00 0.00
1:52 am 01:52 Clear 68 20 62 16.7 81 81 Calm 29.99 1016 10 16 0.00 0.00
2:52 am 02:52 Clear 68 20 62 16.7 81 81 SSE 3 6 29.97 1015 10 16 0.00 0.00
3:52 am 03:52 Clear 67 19.4 62 16.7 84 84 S 3 6 29.97 1015 10 16 0.00 0.00
4:52 am 04:52 Clear 68 20 62 16.7 81 81 WSW 3 6 29.97 1015 10 16 0.00 0.00
5:52 am 05:52 Clear 68 20 62 16.7 81 81 SW 3 6 29.98 1015 10 16 0.00 0.00
6:52 am 06:52 Sunny 68 20 62 16.7 81 81 Calm 30.00 1016 10 16 0.00 0.00
7:52 am 07:52 Sunny 73 22.8 65 18.3 76 76 Calm 30.00 1016 10 16 0.00 0.00
8:52 am 08:52 Sunny 80 26.7 65 18.3 60 60 WNW 8 13 30.00 1016 10 16 0.00 0.00
9:52 am 09:52 Sunny 85 29.4 67 19.4 55 55 NNW 8 13 29.99 1016 10 16 0.00 0.00
10:52 am 10:52 Sunny 88 31.1 67 19.4 50 50 NNW 12 19 29.99 1016 10 16 0.00 0.00
11:52 am 11:52 Sunny 90 32.2 66 18.9 45 45 W 10 17 29.98 1015 10 16 0.00 0.00
12:52 pm 12:52 Partly Cloudy 91 32.8 65 18.3 42 42 NW 9 15 29.97 1015 10 16 0.00 0.00
1:52 pm 13:52 Mostly Sunny 92 33.3 62 16.7 37 37 VRB 3 6 29.96 1015 10 16 0.00 0.00
2:52 pm 14:52 Partly Cloudy 95 35 62 16.7 34 34 undefined N/A 29.92 1013 10 16 0.00 0.00
3:52 pm 15:52 Mostly Sunny 96 35.6 62 16.7 32 32 NW 7 11 29.90 1012 10 16 0.00 0.00
4:52 pm 16:52 Mostly Sunny 94 34.4 63 17.2 36 36 undefined N/A 29.89 1012 10 16 0.00 0.00
5:39 pm 17:39 Mostly Cloudy with Nearby Thunderstorms 91 32.8 63 17.2 39 39 NE 10 17 29.85 1011 10 16 0.00 0.00
5:52 pm 17:52 Mostly Cloudy with Nearby Thunderstorms 88 31.1 63 17.2 43 43 E 17 28 29.90 1013 10 16 0.00 0.00
6:01 pm 18:01 Mostly Cloudy with Nearby Thunderstorms 84 28.9 65 18.3 53 53 E 14 22 29.85 1011 10 16 0.00 0.00
6:24 pm 18:24 Mostly Cloudy 83 28.3 65 18.3 55 55 SE 3 6 29.88 1012 10 16 0.00 0.00
6:42 pm 18:42 Mostly Cloudy with Nearby Thunderstorms 83 28.3 65 18.3 55 55 SSE 3 6 29.88 1012 10 16 0.00 0.00
6:52 pm 18:52 Cloudy with Thunderstorms 84 28.9 65 18.3 53 53 Calm 29.91 1013 8 13 0.00 0.03
7:52 pm 19:52 Cloudy with Thunderstorms 72 22.2 66 18.9 82 82 SW 18 30 29.98 1015 3 5 0.20 5.08
8:09 pm 20:09 Mostly Cloudy with Thunderstorms 72 22.2 65 18.3 79 79 SSE 12 19 29.97 1015 9 14 0.06 1.52
8:52 pm 20:52 Clear with Nearby Thunderstorms 73 22.8 64 17.8 74 74 WSW 8 13 29.95 1014 10 16 0.06 1.52
9:09 pm 21:09 Clear 73 22.8 63 17.2 71 71 WSW 8 13 29.94 1014 10 16 0.00 0.00
9:52 pm 21:52 Clear 73 22.8 62 16.7 69 69 ESE 3 6 29.96 1015 10 16 0.00 0.00
10:52 pm 22:52 Clear 71 21.7 65 18.3 81 81 S 7 11 29.96 1015 10 16 0.00 0.00
11:52 pm 23:52 Clear 70 21.1 65 18.3 84 84 Calm 29.95 1014 10 16 0.00 0.00

Powered by AerisWeather